Weather History for KBFW - September, 2012

Change the Weather History Date:

Sunday, September 23, 2012

  Actual Average Record
Temperature  
Mean Temperature 45 °F -  
Max Temperature 57 °F 59 °F 77 °F (2007)
Min Temperature 33 °F 37 °F 28 °F (2002)
Degree Days  
Heating Degree Days 20    
Moisture  
Dew Point 25 °F    
Average Humidity 53    
Maximum Humidity 75    
Minimum Humidity 26    
Precipitation  
Precipitation 0.00 in - - ()
Sea Level Pressure  
Sea Level Pressure 30.13 in    
Wind  
Wind Speed 3 mph (NW)    
Max Wind Speed 8 mph    
Max Gust Speed -    
Visibility 10 miles    
Events      
Averages and records for this station are not official NWS values.
T = Trace of Precipitation, MM = Missing Value Source: NWS Daily Summary

Daily Weather History Graph

Daily Weather History Graph

Search for Another Location

Airport or City:

Trip Planner

Search our weather history database for the weather conditions in past years. The results will help you decide how hot, cold, wet, or windy it might be!

Date:

Astronomy

Sep. 23, 2012 Rise Set
Actual Time 6:54 AM CDT 7:00 PM CDT
Civil Twilight 6:23 AM CDT 7:30 PM CDT
Nautical Twilight 5:48 AM CDT 8:06 PM CDT
Astronomical Twilight 5:11 AM CDT 8:43 PM CDT
Moon 3:22 PM CDT (9/23) No Moon Set
Length of Visible Light 13h 06m
Length of Day
12h 05m
First Quarter, 60% of the Moon is Illuminated
Sep 23
First Quarter
Sep 29
Full
Oct 8
Last Quarter
Oct 15
New
Oct 21
First Quarter

Hourly Weather History & Observations

Time (CDT) Temp. Windchill Dew Point Humidity Pressure Visibility Wind Dir Wind Speed Gust Speed Precip Events Conditions
12:13 AM 35.6 °F - 26.6 °F 70% 30.13 in 10.0 mi Calm Calm - N/A   Overcast
12:53 AM 33.8 °F - 26.6 °F 75% 30.13 in 10.0 mi Calm Calm - N/A   Scattered Clouds
1:13 AM 33.8 °F - 26.6 °F 75% 30.13 in 10.0 mi Calm Calm - N/A   Clear
1:33 AM 33.8 °F - 26.6 °F 75% 30.13 in 10.0 mi Calm Calm - N/A   Clear
1:53 AM 35.6 °F 32.8 °F 26.6 °F 70% 30.13 in 10.0 mi WNW 3.5 mph - N/A   Clear
2:13 AM 37.4 °F 34.9 °F 26.6 °F 65% 30.13 in 10.0 mi NW 3.5 mph - N/A   Scattered Clouds
2:33 AM 37.4 °F 33.8 °F 26.6 °F 65% 30.12 in 10.0 mi NNW 4.6 mph - N/A   Mostly Cloudy
2:53 AM 37.4 °F 33.8 °F 26.6 °F 65% 30.13 in 10.0 mi NNW 4.6 mph - N/A   Mostly Cloudy
3:13 AM 37.4 °F 33.8 °F 26.6 °F 65% 30.14 in 10.0 mi NW 4.6 mph - N/A   Clear
3:33 AM 37.4 °F - 26.6 °F 65% 30.14 in 10.0 mi Calm Calm - N/A   Scattered Clouds
3:53 AM 37.4 °F 34.9 °F 26.6 °F 65% 30.14 in 10.0 mi WNW 3.5 mph - N/A   Mostly Cloudy
4:13 AM 37.4 °F - 26.6 °F 65% 30.14 in 10.0 mi Calm Calm - N/A   Overcast
4:33 AM 37.4 °F 34.9 °F 26.6 °F 65% 30.14 in 10.0 mi NW 3.5 mph - N/A   Overcast
4:53 AM 37.4 °F 32.8 °F 26.6 °F 65% 30.14 in 10.0 mi NW 5.8 mph - N/A   Mostly Cloudy
5:13 AM 35.6 °F 31.7 °F 26.6 °F 70% 30.14 in 10.0 mi NNW 4.6 mph - N/A   Scattered Clouds
5:33 AM 35.6 °F 31.7 °F 26.6 °F 70% 30.15 in 10.0 mi NNW 4.6 mph - N/A   Clear
5:53 AM 35.6 °F 31.7 °F 26.6 °F 70% 30.15 in 10.0 mi NNW 4.6 mph - N/A   Scattered Clouds
6:13 AM 35.6 °F 30.7 °F 26.6 °F 70% 30.15 in 10.0 mi NNW 5.8 mph - N/A   Clear
6:33 AM 35.6 °F 31.7 °F 26.6 °F 70% 30.16 in 10.0 mi NNW 4.6 mph - N/A   Clear
6:53 AM 35.6 °F 32.8 °F 26.6 °F 70% 30.17 in 10.0 mi NNW 3.5 mph - N/A   Clear
7:14 AM 33.8 °F - 26.6 °F 75% 30.18 in 10.0 mi Calm Calm - N/A   Clear
7:33 AM 33.8 °F - 26.6 °F 75% 30.18 in 10.0 mi Calm Calm - N/A   Clear
7:53 AM 37.4 °F - 26.6 °F 65% 30.19 in 10.0 mi Calm Calm - N/A   Clear
8:13 AM 41.0 °F - 26.6 °F 57% 30.19 in 10.0 mi Calm Calm - N/A   Clear
8:33 AM 42.8 °F - 28.4 °F 57% 30.20 in 10.0 mi Calm Calm - N/A   Clear
9:13 AM 44.6 °F 41.4 °F 26.6 °F 49% 30.20 in 10.0 mi NNW 5.8 mph - N/A   Clear
9:33 AM 46.4 °F 42.9 °F 26.6 °F 46% 30.20 in 10.0 mi NNW 6.9 mph - N/A   Clear
9:53 AM 46.4 °F 44.3 °F 26.6 °F 46% 30.19 in 10.0 mi NNW 4.6 mph - N/A   Clear
10:13 AM 46.4 °F 43.5 °F 26.6 °F 46% 30.19 in 10.0 mi NNW 5.8 mph - N/A   Clear
10:33 AM 48.2 °F - 26.6 °F 43% 30.19 in 10.0 mi WNW 3.5 mph - N/A   Clear
10:53 AM 50.0 °F - 24.8 °F 37% 30.19 in 10.0 mi NW 4.6 mph - N/A   Clear
11:33 AM 51.8 °F - 24.8 °F 35% 30.19 in 10.0 mi WNW 5.8 mph - N/A   Clear
11:53 AM 51.8 °F - 23.0 °F 33% 30.19 in 10.0 mi NNW 3.5 mph - N/A   Scattered Clouds
12:13 PM 51.8 °F - 23.0 °F 33% 30.19 in 10.0 mi North 5.8 mph - N/A   Scattered Clouds
12:33 PM 51.8 °F - 24.8 °F 35% 30.19 in 10.0 mi North 5.8 mph - N/A   Scattered Clouds
12:53 PM 51.8 °F - 23.0 °F 33% 30.19 in 10.0 mi North 5.8 mph - N/A   Scattered Clouds
1:13 PM 53.6 °F - 24.8 °F 33% 30.18 in 10.0 mi West 4.6 mph - N/A   Scattered Clouds
1:33 PM 57.2 °F - 24.8 °F 29% 30.17 in 10.0 mi WSW 8.1 mph - N/A   Clear
1:53 PM 55.4 °F - 24.8 °F 31% 30.17 in 10.0 mi NW 4.6 mph - N/A   Clear
2:13 PM 55.4 °F - 23.0 °F 29% 30.16 in 10.0 mi NW 5.8 mph - N/A   Scattered Clouds
2:33 PM 57.2 °F - 24.8 °F 29% 30.16 in 10.0 mi West 4.6 mph - N/A   Scattered Clouds
2:53 PM 55.4 °F - 23.0 °F 29% 30.16 in 10.0 mi West 3.5 mph - N/A   Scattered Clouds
3:13 PM 55.4 °F - 24.8 °F 31% 30.15 in 10.0 mi WSW 4.6 mph - N/A   Clear
3:33 PM 55.4 °F - 23.0 °F 29% 30.14 in 10.0 mi Calm Calm - N/A   Clear
3:53 PM 57.2 °F - 24.8 °F 29% 30.14 in 10.0 mi West 6.9 mph - N/A   Scattered Clouds
4:13 PM 55.4 °F - 23.0 °F 29% 30.13 in 10.0 mi NW 6.9 mph - N/A   Clear
4:33 PM 55.4 °F - 21.2 °F 26% 30.12 in 10.0 mi WNW 3.5 mph - N/A   Clear
4:53 PM 55.4 °F - 23.0 °F 29% 30.12 in 10.0 mi West 6.9 mph - N/A   Clear
5:13 PM 55.4 °F - 21.2 °F 26% 30.12 in 10.0 mi West 4.6 mph - N/A   Clear
5:33 PM 53.6 °F - 23.0 °F 30% 30.11 in 10.0 mi WSW 6.9 mph - N/A   Clear
5:53 PM 53.6 °F - 24.8 °F 33% 30.11 in 10.0 mi WNW 3.5 mph - N/A   Clear
6:13 PM 51.8 °F - 24.8 °F 35% 30.11 in 10.0 mi West 4.6 mph - N/A   Clear
6:33 PM 50.0 °F - 24.8 °F 37% 30.11 in 10.0 mi West 3.5 mph - N/A   Clear
6:53 PM 48.2 °F - 24.8 °F 40% 30.10 in 10.0 mi Calm Calm - N/A   Clear
7:13 PM 44.6 °F - 26.6 °F 49% 30.10 in 10.0 mi Calm Calm - N/A   Clear
7:33 PM 42.8 °F - 26.6 °F 53% 30.10 in 10.0 mi Calm Calm - N/A   Clear
7:53 PM 41.0 °F - 26.6 °F 57% 30.10 in 10.0 mi Calm Calm - N/A   Clear
8:13 PM 39.2 °F - 26.6 °F 61% 30.10 in 10.0 mi Calm Calm - N/A   Clear
8:33 PM 39.2 °F - 26.6 °F 61% 30.09 in 10.0 mi Calm Calm - N/A   Clear
8:53 PM 37.4 °F - 26.6 °F 65% 30.09 in 10.0 mi Calm Calm - N/A   Clear
9:13 PM 37.4 °F - 26.6 °F 65% 30.07 in 10.0 mi Calm Calm - N/A   Clear
9:33 PM 37.4 °F - 26.6 °F 65% 30.06 in 10.0 mi Calm Calm - N/A   Clear
9:53 PM 35.6 °F - 24.8 °F 65% 30.06 in 10.0 mi Calm Calm - N/A   Clear
10:13 PM 35.6 °F - 24.8 °F 65% 30.06 in 10.0 mi Calm Calm - N/A   Clear
10:33 PM 35.6 °F - 24.8 °F 65% 30.05 in 10.0 mi Calm Calm - N/A   Clear
10:53 PM 35.6 °F - 24.8 °F 65% 30.04 in 10.0 mi Calm Calm - N/A   Clear
11:13 PM 35.6 °F - 24.8 °F 65% 30.03 in 10.0 mi Calm Calm - N/A   Clear
11:33 PM 33.8 °F - 24.8 °F 70% 30.03 in 10.0 mi Calm Calm - N/A   Clear
11:53 PM 33.8 °F - 24.8 °F 70% 30.02 in 10.0 mi Calm Calm - N/A   Clear